Great Salt Lake Weather Center

Moon Phase Calendar



Great Salt Lake Water Level
Online Cameras

 


      

Current Conditions in Little Mountain
8/12/2022 12:44:39 AM

73°F
Feels Like 73
Clouds
Humidity
71%
Pressure
30"
Wind
8 mph (SE)
Dew Point
63°F
UV Index
0/10 (Low)
Visibility
6 mi

Hourly Forecast

Date & Time Fri, Aug 12
12:00 AM
Fri, Aug 12
1:00 AM
Fri, Aug 12
2:00 AM
Fri, Aug 12
3:00 AM
Fri, Aug 12
4:00 AM
Fri, Aug 12
5:00 AM
Fri, Aug 12
6:00 AM
Fri, Aug 12
7:00 AM
Fri, Aug 12
8:00 AM
Fri, Aug 12
9:00 AM
Fri, Aug 12
10:00 AM
Fri, Aug 12
11:00 AM
Fri, Aug 12
12:00 PM
Fri, Aug 12
1:00 PM
Fri, Aug 12
2:00 PM
Fri, Aug 12
3:00 PM
Fri, Aug 12
4:00 PM
Fri, Aug 12
5:00 PM
Fri, Aug 12
6:00 PM
Fri, Aug 12
7:00 PM
Fri, Aug 12
8:00 PM
Fri, Aug 12
9:00 PM
Fri, Aug 12
10:00 PM
Fri, Aug 12
11:00 PM
Sat, Aug 13
12:00 AM
Sat, Aug 13
1:00 AM
Sat, Aug 13
2:00 AM
Sat, Aug 13
3:00 AM
Sat, Aug 13
4:00 AM
Sat, Aug 13
5:00 AM
Sat, Aug 13
6:00 AM
Sat, Aug 13
7:00 AM
Sat, Aug 13
8:00 AM
Sat, Aug 13
9:00 AM
Sat, Aug 13
10:00 AM
Sat, Aug 13
11:00 AM
Sat, Aug 13
12:00 PM
Sat, Aug 13
1:00 PM
Sat, Aug 13
2:00 PM
Sat, Aug 13
3:00 PM
Sat, Aug 13
4:00 PM
Sat, Aug 13
5:00 PM
Sat, Aug 13
6:00 PM
Sat, Aug 13
7:00 PM
Sat, Aug 13
8:00 PM
Sat, Aug 13
9:00 PM
Sat, Aug 13
10:00 PM
Sat, Aug 13
11:00 PM
Condition
Clouds

Clouds

Clouds

Clouds

Clouds

Clouds

Clouds

Clouds

Clouds

Clouds

Clouds

Clouds

Clouds

Clouds

Clouds

Clouds

Clouds

Clouds

Clouds

Clouds

Clouds

Clouds

Clouds

Clouds

Clouds

Clouds

Clouds

Clouds

Clouds

Clouds

Clouds

Clouds

Clouds

Clouds

Clouds

Clouds

Clouds

Clouds

Clouds

Clouds

Clouds

Clouds

Clouds

Clouds

Clouds

Clouds

Clouds

Clouds
Temperature 73°F73°F73°F73°F73°F73°F72°F72°F72°F73°F73°F74°F75°F76°F77°F77°F78°F78°F79°F79°F78°F76°F74°F74°F74°F73°F73°F72°F72°F72°F72°F72°F73°F73°F73°F74°F75°F76°F77°F78°F79°F79°F80°F80°F78°F76°F74°F73°F
Feels Like 73°F73°F73°F73°F73°F73°F72°F72°F72°F73°F73°F74°F75°F76°F77°F77°F78°F78°F79°F79°F79°F76°F75°F74°F74°F74°F73°F72°F72°F73°F72°F72°F73°F73°F73°F74°F75°F76°F77°F78°F79°F79°F80°F80°F78°F76°F74°F73°F
Cloudiness 99%100%100%100%100%100%100%100%100%99%99%99%99%100%100%100%100%100%100%43%53%69%77%81%84%100%100%100%100%100%100%100%100%92%88%86%84%43%58%72%79%83%86%81%44%62%72%77%
Visibility 6 mi6 mi6 mi6 mi6 mi6 mi6 mi6 mi6 mi6 mi6 mi6 mi6 mi6 mi6 mi6 mi6 mi6 mi6 mi6 mi6 mi6 mi6 mi6 mi6 mi6 mi6 mi6 mi6 mi6 mi6 mi6 mi6 mi6 mi6 mi6 mi6 mi6 mi6 mi6 mi6 mi6 mi6 mi6 mi6 mi6 mi6 mi6 mi
Precipitation 24%9%8%8%8%4%4%0%0%0%0%0%0%0%0%0%0%0%0%16%12%12%8%4%4%10%12%12%2%2%2%0%0%0%0%0%0%4%4%4%6%8%2%16%15%17%28%38%
Humidity 70%71%70%70%69%69%69%70%70%67%65%64%62%58%54%53%53%54%54%56%57%64%68%68%68%69%70%70%68%67%67%66%67%66%64%61%59%58%55%52%52%52%56%54%56%63%69%70%
Dew Point 63°F63°F63°F62°F62°F62°F61°F62°F62°F61°F61°F61°F61°F59°F58°F58°F59°F60°F61°F61°F61°F63°F63°F62°F62°F62°F62°F61°F61°F61°F60°F60°F61°F60°F60°F59°F59°F60°F59°F59°F60°F60°F62°F61°F61°F62°F63°F63°F
Pressure 30"30"30"30"30"30"29.97"30"30"30"30"30"30"29.97"29.97"29.94"29.91"29.88"29.88"29.85"29.88"29.91"29.94"29.94"29.94"29.97"29.97"29.97"29.97"29.97"29.97"29.97"30"30"30"30"30"29.97"29.97"29.94"29.88"29.88"29.85"29.85"29.88"29.88"29.94"29.94"
Wind Speed 10 mph8 mph1.5 mph7.2 mph8.1 mph6.4 mph7.2 mph3.7 mph1.7 mph3.4 mph4.2 mph2.3 mph0.2 mph2.2 mph3.6 mph4.3 mph4.9 mph6.7 mph6.4 mph5.3 mph8.8 mph17.5 mph12.6 mph10.9 mph8.5 mph8.5 mph7.1 mph6.6 mph8.6 mph9.4 mph7.2 mph6 mph3.7 mph3.7 mph3 mph1.6 mph0.8 mph1.3 mph2.1 mph3 mph3.5 mph4.3 mph1.7 mph3.9 mph11.2 mph14 mph14.7 mph15.1 mph
Wind
Direction
117°
ESE
140°
SE
125°
SE
116°
ESE
120°
ESE
107°
ESE
95°
E
114°
ESE
132°
SE
70°
ENE
84°
E
71°
ENE
185°
S
298°
WNW
312°
NW
315°
NW
336°
NNW
27°
NNE
50°
NE
81°
E
128°
SE
136°
SE
129°
SE
138°
SE
123°
ESE
117°
ESE
107°
ESE
96°
E
98°
E
101°
E
106°
ESE
103°
ESE
95°
E
77°
ENE
83°
E
68°
ENE
28°
NNE
319°
NW
344°
NNW
344°
NNW
342°
NNW
15°
NNE
23°
NNE
326°
NW
346°
NNW
29°
NNE
53°
NE
59°
ENE

Daily Forecast

Date High Low Precip. Humidity
Today
Aug 12

Clouds
79 °F
72 °F
24%
58%
Saturday
Aug 13

Clouds
80 °F
72 °F
17%
58%
Sunday
Aug 14

Clouds
78 °F
71 °F
36%
61%
Monday
Aug 15

Clouds
79 °F
72 °F
2%
58%
Tuesday
Aug 16

Clouds
81 °F
72 °F
0%
47%
Wednesday
Aug 17

Clouds
79 °F
74 °F
6%
56%
Thursday
Aug 18

Clouds
81 °F
72 °F
13%
53%
Friday
Aug 19

Rain
77 °F
70 °F
55%
54%
Saturday
Aug 20

Rain
79 °F
68 °F
62%
65%
Sunday
Aug 21

Clear
82 °F
73 °F
0%
50%
Monday
Aug 22

Clouds
83 °F
73 °F
0%
49%
Tuesday
Aug 23

Clouds
81 °F
71 °F
0%
49%
Wednesday
Aug 24

Clear
85 °F
74 °F
0%
46%
Thursday
Aug 25

Clear
83 °F
74 °F
0%
44%
Friday
Aug 26

Clouds
83 °F
74 °F
0%
44%
Saturday
Aug 27

Clouds
82 °F
73 °F
0%
45%

Temperature 8-14 Day Outlook



Precipitation 8-14 Day Outlook




Quick Links
Great Salt Lake News
Great Salt Lake Photos
Great Salt Lake Videos




About Us
Contact Us
Site Map
Search Site
Advertise With Us
   
GreatSalt.USLakes.info
THE GREAT SALT LAKE WEBSITE

Copyright 2022, Lakes Online
Privacy    |    Legal